TimeEDT,TemperatureF,Dew PointF,Humidity,Sea Level PressureIn,VisibilityMPH,Wind Direction,Wind SpeedMPH,Gust SpeedMPH,PrecipitationIn,Events,Conditions,WindDirDegrees,DateUTC
12:00 AM,66.2,64.4,94,29.97,5.0,Calm,Calm,-,N/A,,Overcast,0,2013-08-04 04:00:00
12:20 AM,66.2,64.4,94,29.96,7.0,Calm,Calm,-,N/A,,Mostly Cloudy,0,2013-08-04 04:20:00
12:40 AM,66.2,64.4,94,29.96,10.0,Calm,Calm,-,N/A,,Mostly Cloudy,0,2013-08-04 04:40:00
1:00 AM,66.2,64.4,94,29.96,7.0,Calm,Calm,-,N/A,,Scattered Clouds,0,2013-08-04 05:00:00
1:20 AM,66.2,62.6,88,29.95,7.0,Calm,Calm,-,N/A,,Scattered Clouds,0,2013-08-04 05:20:00
1:40 AM,66.2,64.4,94,29.96,7.0,Calm,Calm,-,N/A,,Scattered Clouds,0,2013-08-04 05:40:00
2:00 AM,64.4,62.6,94,29.96,7.0,Calm,Calm,-,N/A,,Clear,0,2013-08-04 06:00:00
2:20 AM,64.4,62.6,94,29.96,4.0,Calm,Calm,-,N/A,,Clear,0,2013-08-04 06:20:00
2:40 AM,64.4,62.6,94,29.95,4.0,Calm,Calm,-,N/A,,Clear,0,2013-08-04 06:40:00
3:00 AM,62.6,62.6,100,29.95,3.0,Calm,Calm,-,N/A,,Clear,0,2013-08-04 07:00:00
3:20 AM,62.6,62.6,100,29.95,5.0,Calm,Calm,-,N/A,,Clear,0,2013-08-04 07:20:00
3:40 AM,62.6,62.6,100,29.95,7.0,Calm,Calm,-,N/A,,Clear,0,2013-08-04 07:40:00
4:00 AM,62.6,60.8,94,29.95,7.0,Calm,Calm,-,N/A,,Clear,0,2013-08-04 08:00:00
4:20 AM,62.6,60.8,94,29.95,10.0,Calm,Calm,-,N/A,,Clear,0,2013-08-04 08:20:00
4:40 AM,62.6,60.8,94,29.95,10.0,Calm,Calm,-,N/A,,Clear,0,2013-08-04 08:40:00
5:00 AM,62.6,60.8,94,29.96,10.0,Calm,Calm,-,N/A,,Clear,0,2013-08-04 09:00:00
5:20 AM,62.6,60.8,94,29.96,10.0,Calm,Calm,-,N/A,,Clear,0,2013-08-04 09:20:00
5:40 AM,62.6,59.0,88,29.97,10.0,Calm,Calm,-,N/A,,Clear,0,2013-08-04 09:40:00
6:00 AM,62.6,59.0,88,29.97,10.0,Calm,Calm,-,N/A,,Clear,0,2013-08-04 10:00:00
6:15 AM,60.8,57.2,88,29.97,10.0,Calm,Calm,-,N/A,,Clear,0,2013-08-04 10:15:00
6:40 AM,60.8,57.2,88,29.97,10.0,Calm,Calm,-,N/A,,Clear,0,2013-08-04 10:40:00
7:00 AM,60.8,57.2,88,29.98,10.0,Calm,Calm,-,N/A,,Clear,0,2013-08-04 11:00:00
7:20 AM,62.6,57.2,82,29.98,10.0,NW,4.6,-,N/A,,Clear,320,2013-08-04 11:20:00
7:40 AM,62.6,57.2,82,29.99,10.0,Calm,Calm,-,N/A,,Clear,0,2013-08-04 11:40:00
7:55 AM,64.4,57.2,77,29.99,10.0,Calm,Calm,-,N/A,,Clear,0,2013-08-04 11:55:00
8:20 AM,64.4,57.2,77,29.99,10.0,Calm,Calm,-,N/A,,Clear,0,2013-08-04 12:20:00
8:40 AM,66.2,57.2,73,30.00,10.0,Calm,Calm,-,N/A,,Clear,0,2013-08-04 12:40:00
9:00 AM,66.2,57.2,73,30.00,10.0,Calm,Calm,-,N/A,,Clear,0,2013-08-04 13:00:00
9:20 AM,69.8,57.2,64,30.00,10.0,NNW,3.5,-,N/A,,Clear,340,2013-08-04 13:20:00
9:40 AM,69.8,57.2,64,30.00,10.0,Calm,Calm,-,N/A,,Clear,0,2013-08-04 13:40:00
10:00 AM,69.8,57.2,64,30.00,10.0,Calm,Calm,-,N/A,,Clear,0,2013-08-04 14:00:00
10:20 AM,71.6,57.2,60,30.01,10.0,North,4.6,-,N/A,,Clear,350,2013-08-04 14:20:00
10:40 AM,71.6,55.4,57,30.01,10.0,NW,6.9,-,N/A,,Clear,320,2013-08-04 14:40:00
11:00 AM,73.4,57.2,57,30.01,10.0,Calm,Calm,-,N/A,,Scattered Clouds,0,2013-08-04 15:00:00
11:20 AM,73.4,57.2,57,30.00,10.0,NNW,8.1,-,N/A,,Clear,330,2013-08-04 15:20:00
11:40 AM,73.4,57.2,57,30.01,10.0,WNW,5.8,-,N/A,,Scattered Clouds,290,2013-08-04 15:40:00
12:00 PM,75.2,57.2,53,30.00,10.0,NW,4.6,-,N/A,,Scattered Clouds,320,2013-08-04 16:00:00
12:20 PM,75.2,57.2,53,30.00,10.0,NW,9.2,18.4,N/A,,Scattered Clouds,310,2013-08-04 16:20:00
12:40 PM,75.2,55.4,50,30.00,10.0,NNW,8.1,17.3,N/A,,Scattered Clouds,340,2013-08-04 16:40:00
1:00 PM,77.0,55.4,47,30.00,10.0,NNW,8.1,19.6,N/A,,Scattered Clouds,330,2013-08-04 17:00:00
1:20 PM,75.2,57.2,53,30.00,10.0,NNW,6.9,19.6,N/A,,Scattered Clouds,330,2013-08-04 17:20:00
1:40 PM,77.0,55.4,47,30.00,10.0,North,10.4,-,N/A,,Scattered Clouds,350,2013-08-04 17:40:00
2:00 PM,78.8,55.4,44,30.00,10.0,NW,11.5,19.6,N/A,,Scattered Clouds,320,2013-08-04 18:00:00
2:20 PM,78.8,53.6,42,30.00,10.0,NNW,9.2,18.4,N/A,,Scattered Clouds,340,2013-08-04 18:20:00
2:40 PM,78.8,53.6,42,29.99,10.0,NW,11.5,19.6,N/A,,Clear,320,2013-08-04 18:40:00
3:00 PM,78.8,53.6,42,29.99,10.0,NW,8.1,21.9,N/A,,Clear,320,2013-08-04 19:00:00
3:20 PM,78.8,60.8,54,29.99,10.0,NNW,5.8,16.1,N/A,,Scattered Clouds,340,2013-08-04 19:20:00
3:40 PM,78.8,53.6,42,29.99,10.0,NNW,10.4,16.1,N/A,,Scattered Clouds,340,2013-08-04 19:40:00
4:00 PM,78.8,50.0,36,29.99,10.0,NNW,8.1,17.3,N/A,,Scattered Clouds,340,2013-08-04 20:00:00
4:20 PM,78.8,50.0,36,30.00,10.0,NNW,12.7,18.4,N/A,,Clear,340,2013-08-04 20:20:00
4:40 PM,78.8,50.0,36,30.00,10.0,North,12.7,17.3,N/A,,Clear,350,2013-08-04 20:40:00
5:00 PM,77.0,46.4,34,30.01,10.0,NNW,10.4,17.3,N/A,,Clear,340,2013-08-04 21:00:00
5:20 PM,78.8,46.4,32,30.00,10.0,NNW,9.2,18.4,N/A,,Clear,330,2013-08-04 21:20:00
5:40 PM,78.8,46.4,32,3.00,10.0,NW,6.9,-,N/A,,Clear,320,2013-08-04 21:40:00
6:00 PM,78.8,44.6,30,-9999,10.0,NW,11.5,16.1,N/A,,Clear,320,2013-08-04 22:00:00
6:20 PM,77.0,44.6,32,29.99,10.0,NW,4.6,16.1,N/A,,Clear,310,2013-08-04 22:20:00
6:40 PM,78.8,44.6,30,30.00,10.0,NW,5.8,-,N/A,,Clear,320,2013-08-04 22:40:00
7:00 PM,75.2,46.4,36,30.00,10.0,Calm,Calm,-,N/A,,Clear,0,2013-08-04 23:00:00
7:20 PM,77.0,48.2,36,30.00,10.0,NW,3.5,-,N/A,,Clear,320,2013-08-04 23:20:00
7:40 PM,75.2,-9999,N/A,30.01,10.0,Calm,Calm,-,N/A,,Clear,0,2013-08-04 23:40:00
8:00 PM,73.4,51.8,47,30.01,10.0,Calm,Calm,-,N/A,,Clear,0,2013-08-05 00:00:00
8:20 PM,73.4,51.8,47,30.02,10.0,Calm,Calm,-,N/A,,Clear,0,2013-08-05 00:20:00
8:40 PM,71.6,51.8,50,30.02,10.0,Calm,Calm,-,N/A,,Clear,0,2013-08-05 00:40:00
10:20 PM,69.8,53.6,56,30.05,10.0,Calm,Calm,-,N/A,,Unknown,0,2013-08-05 02:20:00
10:40 PM,69.8,53.6,56,30.05,10.0,Calm,Calm,-,N/A,,Clear,0,2013-08-05 02:40:00
11:00 PM,69.8,53.6,56,30.05,10.0,Calm,Calm,-,N/A,,Clear,0,2013-08-05 03:00:00
11:20 PM,68.0,53.6,60,30.05,10.0,Calm,Calm,-,N/A,,Clear,0,2013-08-05 03:20:00
11:40 PM,66.2,53.6,64,30.06,10.0,Calm,Calm,-,N/A,,Clear,0,2013-08-05 03:40:00